Wakefield, VA

12:14 AM EDT on September 20, 2019 (GMT -0400)
Wakefield Municipal

Weather History for KAKQ - August, 2019

Change the Weather History Date:

Sunday, August 25, 2019

  Actual Average (KJGG) Record (KJGG)
Temperature  
Mean Temperature 72 °F -  
Max Temperature 82 °F 86 °F 98 °F (2007)
Min Temperature 64 °F 64 °F 44 °F (1952)
Cooling Degree Days 8    
Growing Degree Days 22 (Base 50)    
Moisture  
Dew Point 60 °F    
Average Humidity 68    
Maximum Humidity 84    
Minimum Humidity 48    
Precipitation  
Precipitation 0.00 in - - ()
Sea Level Pressure  
Sea Level Pressure 30.13 in    
Wind  
Wind Speed 3 mph (NE)    
Max Wind Speed 8 mph    
Max Gust Speed -    
Visibility 10 miles    
Events      
Averages and records for this station are not official NWS values.
T = Trace of Precipitation, MM = Missing Value Source: NWS Daily Summary

Daily Weather History Graph

Daily Weather History Graph

Search for Another Location

Airport or City:

Astronomy

Aug. 25, 2019 Rise Set
Actual Time 6:32 AM EDT 7:46 PM EDT
Civil Twilight 6:05 AM EDT 8:13 PM EDT
Nautical Twilight 5:33 AM EDT 8:45 PM EDT
Astronomical Twilight 5:00 AM EDT 9:19 PM EDT
Moon 1:10 AM EDT (8/25) 4:00 PM EDT (8/25)
Length of Visible Light 14h 07m
Length of Day
13h 13m
Waning Crescent, 29% of the Moon is Illuminated
Aug 25
Waning Crescent
Aug 30
New
Sep 5
First Quarter
Sep 14
Full
Sep 21
Last Quarter

Hourly Weather History & Observations

Time (EDT) Temp. Dew Point Humidity Pressure Visibility Wind Dir Wind Speed Gust Speed Precip Events Conditions
12:54 AM 70.0 °F 63.0 °F 78% 30.15 in 10.0 mi Calm Calm - N/A   Overcast
1:54 AM 69.1 °F 63.0 °F 81% 30.14 in 10.0 mi Calm Calm - N/A   Overcast
2:54 AM 69.1 °F 62.1 °F 78% 30.12 in 10.0 mi Calm Calm - N/A   Overcast
3:54 AM 69.1 °F 62.1 °F 78% 30.12 in 10.0 mi Variable 3.5 mph - N/A   Overcast
4:54 AM 69.1 °F 61.0 °F 75% 30.12 in 10.0 mi Calm Calm - N/A   Overcast
5:54 AM 69.1 °F 60.1 °F 73% 30.12 in 10.0 mi Calm Calm - N/A   Overcast
6:54 AM 68.0 °F 61.0 °F 78% 30.13 in 10.0 mi Calm Calm - N/A   Overcast
7:54 AM 69.1 °F 61.0 °F 75% 30.14 in 10.0 mi Variable 3.5 mph - N/A   Overcast
8:54 AM 71.1 °F 59.0 °F 66% 30.14 in 10.0 mi Variable 4.6 mph - N/A   Overcast
9:54 AM 72.0 °F 57.0 °F 59% 30.15 in 10.0 mi Variable 6.9 mph - N/A   Overcast
10:54 AM 73.9 °F 57.0 °F 55% 30.15 in 10.0 mi NNE 8.1 mph - N/A   Overcast
11:54 AM 75.9 °F 57.0 °F 52% 30.15 in 10.0 mi Variable 6.9 mph - N/A   Overcast
12:54 PM 75.9 °F 55.9 °F 50% 30.14 in 10.0 mi Variable 6.9 mph - N/A   Mostly Cloudy
1:54 PM 78.1 °F 57.0 °F 48% 30.12 in 10.0 mi ENE 8.1 mph - N/A   Partly Cloudy
2:54 PM 77.0 °F 57.9 °F 52% 30.12 in 10.0 mi NE 8.1 mph - N/A   Mostly Cloudy
3:54 PM 79.0 °F 60.1 °F 52% 30.10 in 10.0 mi Variable 5.8 mph - N/A   Overcast
4:54 PM 77.0 °F 62.1 °F 60% 30.10 in 10.0 mi Variable 3.5 mph - N/A   Overcast
5:54 PM 75.0 °F 63.0 °F 66% 30.11 in 10.0 mi East 6.9 mph - 0.00 in   Overcast
6:54 PM 73.0 °F 63.0 °F 71% 30.10 in 10.0 mi Variable 3.5 mph - N/A   Scattered Clouds
7:54 PM 71.1 °F 62.1 °F 73% 30.11 in 10.0 mi NE 5.8 mph - N/A   Scattered Clouds
8:54 PM 70.0 °F 62.1 °F 76% 30.12 in 10.0 mi NE 4.6 mph - N/A   Partly Cloudy
9:54 PM 69.1 °F 61.0 °F 75% 30.14 in 10.0 mi NE 3.5 mph - N/A   Clear
10:54 PM 66.9 °F 60.1 °F 79% 30.13 in 10.0 mi Calm Calm - N/A   Clear
11:54 PM 64.9 °F 60.1 °F 84% 30.13 in 10.0 mi Calm Calm - N/A   Clear